Date,TemperatureHighF,TemperatureAvgF,TemperatureLowF,DewpointHighF,DewpointAvgF,DewpointLowF,HumidityHigh,HumidityAvg,HumidityLow,PressureMaxIn,PressureMinIn,WindSpeedMaxMPH,WindSpeedAvgMPH,GustSpeedMaxMPH,PrecipitationSumIn
2013-1-1,81.0,75.0,72.0,71.0,66.3,61.0,89,75,67,30.14,30.00,3,1,9,0.00
2013-1-2,81.0,74.5,70.0,73.0,69.8,67.0,92,85,76,30.06,29.98,2,0,7,0.00
2013-1-3,83.0,78.0,69.0,74.0,71.4,67.0,93,81,72,30.09,30.01,3,1,8,0.00
2013-1-8,84.0,79.5,76.0,74.0,72.5,72.0,86,79,69,30.09,30.05,2,1,11,0.00
2013-1-9,83.0,83.0,83.0,74.0,74.0,74.0,74,74,74,30.17,30.17,2,2,9,0.00
2013-1-10,82.0,82.0,82.0,70.0,70.0,70.0,68,68,68,30.18,30.18,3,3,11,0.00
2013-1-14,82.0,79.3,74.0,66.0,65.0,63.0,68,62,58,30.10,30.06,3,2,8,0.00
2013-1-24,75.0,69.5,66.0,62.0,59.4,58.0,79,71,60,30.26,30.16,5,4,16,0.14
2013-1-25,78.0,70.4,66.0,61.0,59.4,58.0,78,68,56,30.25,30.13,6,3,13,0.00
2013-1-26,76.0,71.0,68.0,64.0,62.8,62.0,82,76,64,30.20,30.13,6,3,16,0.00
2013-1-27,81.0,73.4,70.0,70.0,66.5,63.0,86,79,67,30.20,30.13,5,2,13,0.00
2013-1-28,83.0,75.8,72.0,70.0,67.7,65.0,84,76,65,30.24,30.16,3,1,10,0.00
2013-1-29,83.0,76.4,73.0,72.0,69.1,68.0,85,79,69,30.18,30.06,3,2,12,0.00
2013-1-30,82.0,76.6,73.0,71.0,68.5,66.0,87,76,66,30.06,29.94,4,1,13,0.00
2013-1-31,75.0,68.9,65.0,71.0,61.9,55.0,88,79,71,30.15,29.97,7,5,21,0.01
2013-2-1,72.0,66.8,62.0,59.0,55.3,51.0,75,67,59,30.23,30.12,10,6,20,0.01
2013-2-2,78.0,69.5,65.0,61.0,58.5,56.0,78,69,52,30.20,30.09,8,3,16,0.00
2013-2-3,72.0,68.4,66.0,61.0,56.4,51.0,79,66,54,30.16,30.05,8,4,15,0.00
2013-2-4,74.0,67.6,64.0,59.0,55.0,52.0,80,65,50,30.10,29.99,6,3,14,0.00
2013-2-5,80.0,70.7,64.0,66.0,62.3,58.0,88,76,57,30.04,29.97,3,1,9,0.00
2013-2-6,80.0,71.8,64.0,70.0,65.9,61.0,93,82,66,30.07,29.98,5,1,9,0.00
2013-2-7,83.0,75.9,72.0,71.0,67.6,65.0,89,76,60,30.04,29.92,3,1,8,0.00
2013-2-8,83.0,75.9,72.0,74.0,70.7,68.0,92,84,70,30.04,29.92,5,1,11,0.00
2013-2-9,80.0,73.5,68.0,72.0,67.0,62.0,89,80,73,30.11,30.01,5,2,10,0.00
2013-2-10,83.0,75.9,72.0,69.0,66.5,65.0,82,73,59,30.18,30.08,4,2,14,0.00
2013-2-11,84.0,76.6,73.0,72.0,69.0,66.0,86,78,67,30.16,30.07,3,2,10,0.00
2013-2-12,84.0,77.6,74.0,73.0,70.8,68.0,88,80,68,30.08,29.94,3,1,10,0.00
2013-2-13,84.0,77.6,73.0,75.0,72.3,70.0,93,84,71,30.00,29.91,3,0,7,0.00
2013-2-14,86.0,77.4,66.0,76.0,72.1,63.0,92,84,71,29.98,29.88,11,2,20,0.14
2013-2-15,74.0,69.0,67.0,70.0,65.9,64.0,92,90,82,29.99,29.89,7,3,16,0.23
2013-2-16,73.0,69.0,65.0,68.0,61.1,52.0,92,76,60,30.07,29.87,7,4,17,0.06
2013-2-17,65.0,58.9,51.0,53.0,45.0,39.0,72,60,52,30.27,30.07,11,5,20,0.01
2013-2-18,73.0,61.9,48.0,58.0,50.6,39.0,76,67,53,30.27,30.15,7,2,15,0.01
2013-2-19,81.0,72.9,65.0,71.0,65.4,57.0,89,77,67,30.15,30.05,3,1,9,0.01
2013-2-20,79.0,72.0,67.0,69.0,67.1,64.0,92,85,70,30.08,29.97,6,2,12,0.01
2013-2-21,84.0,75.0,69.0,72.0,68.9,67.0,93,82,65,30.04,29.96,3,1,9,0.01
2013-2-22,84.0,76.9,73.0,74.0,71.4,69.0,91,84,72,30.05,29.96,3,1,9,0.00
2013-2-23,85.0,78.3,75.0,75.0,72.7,71.0,90,83,71,30.01,29.90,2,1,7,0.00
2013-2-24,84.0,77.8,73.0,76.0,72.8,71.0,93,85,70,29.98,29.88,2,0,5,0.00
2013-2-25,86.0,78.7,75.0,76.0,73.5,72.0,93,84,69,29.89,29.77,2,0,7,0.00
2013-2-26,84.0,78.8,76.0,77.0,73.4,72.0,88,84,75,29.91,29.77,3,1,13,0.02
2013-2-27,77.0,73.9,70.0,73.0,70.4,67.0,93,88,80,29.95,29.86,8,2,13,0.01
2013-2-28,73.0,69.2,63.0,67.0,61.6,54.0,88,77,60,29.99,29.90,6,3,12,0.48
2013-3-1,71.0,66.5,63.0,62.0,59.5,56.0,87,78,69,29.98,29.89,6,2,14,0.04
2013-3-2,69.0,63.6,57.0,57.0,53.1,49.0,79,69,58,30.04,29.95,7,3,17,0.02
2013-3-3,68.0,61.3,56.0,57.0,52.6,47.0,87,74,57,30.14,29.93,6,3,15,0.21
2013-3-4,65.0,60.8,54.0,53.0,50.1,46.0,85,68,57,30.20,30.11,7,2,14,0.05
2013-3-5,77.0,64.9,53.0,62.0,55.7,50.0,90,74,53,30.14,30.07,3,1,9,0.00
2013-3-6,79.0,66.1,58.0,66.0,58.1,52.0,92,76,58,30.11,30.03,8,2,15,0.00
2013-3-7,65.0,62.1,60.0,53.0,50.2,47.0,74,65,54,30.19,30.07,7,4,14,0.00
2013-3-8,74.0,66.3,61.0,60.0,55.5,52.0,81,69,56,30.17,30.10,7,2,12,0.00
2013-3-9,78.0,69.8,64.0,63.0,59.4,55.0,84,70,51,30.15,30.06,6,2,13,0.00
2013-3-10,79.0,71.5,64.0,62.0,59.8,57.0,82,67,52,30.13,30.00,4,2,12,0.00
2013-3-11,81.0,74.3,70.0,67.0,63.5,60.0,81,69,58,30.04,29.92,3,2,12,0.00
2013-3-12,82.0,74.9,69.0,71.0,68.2,65.0,88,80,64,30.01,29.88,4,1,10,0.00
2013-3-13,73.0,68.2,65.0,65.0,58.2,51.0,88,72,49,30.11,29.98,9,5,17,0.00